Regional Weather Roundup
Issued by NWS

Home | Current Version | Previous Version | Graphics & Text | Print | Product List | Glossary On
Versions: 1 2 3 4 5 6 7 8 9 10 11 12 13 14 15 16 17 18 19 20 21 22 23 24 25 26 27 28 29 30 31 32 33 34 35 36 37 38 39 40 41 42 43 44 45 46 47 48 49 50
000
ASUS43 KBIS 201002
RWRND

NORTH DAKOTA REGIONAL WEATHER ROUNDUP
NATIONAL WEATHER SERVICE BISMARCK ND
500 AM CDT FRI OCT 20 2017

NOTE: "FAIR" INDICATES FEW OR NO CLOUDS BELOW 12,000 FEET WITH NO
SIGNIFICANT WEATHER AND/OR OBSTRUCTIONS TO VISIBILITY.


NDZ001>003-009>011-017-201100-
NORTHWEST NORTH DAKOTA

CITY           SKY/WX    TMP DP  RH WIND       PRES   REMARKS
WILLISTON      CLEAR     43  31  62 NE6       29.44F
MINOT          FAIR      45  36  70 CALM      29.48F
MINOT AFB      FAIR      38  32  79 CALM      29.47F
$$

NDZ018>021-031>035-040>046-201100-
SOUTHWEST NORTH DAKOTA

CITY           SKY/WX    TMP DP  RH WIND       PRES   REMARKS
BISMARCK       CLEAR     46  41  82 E8        29.52F
DICKINSON      PTCLDY    41  30  65 SW7       29.47F
GARRISON         N/A     43  36  76 E5        29.49F
HETTINGER ARPT CLEAR     48  27  44 E5        29.52F
$$

NDZ004>008-012>016-024-026-027-054-201100-
NORTHEAST NORTH DAKOTA

CITY           SKY/WX    TMP DP  RH WIND       PRES   REMARKS
GRAND FORKS    FAIR      49  45  86 SE7       29.61F
GRND FRKS AFB  FAIR      43  41  93 S7        29.61F
DEVILS LAKE    FAIR      45  42  89 SE9       29.57F
$$

NDZ022-023-025-028>030-036>039-047>053-201100-
SOUTHEAST NORTH DAKOTA

CITY           SKY/WX    TMP DP  RH WIND       PRES   REMARKS
FARGO          FAIR      57  49  74 S14       29.65F
JAMESTOWN      FAIR      50  45  83 S14       29.59F
$$




USA.gov is the U.S. government's official web portal to all federal, state and local government web resources and services.